Location: Bremen
(53.0793°N, 8.8017°E)
Time: 01:54:59
(UTC+02:00)

Vanguard 2 - Visible Passes

Search period start: 17 April 2024 00:00
Search period end: 27 April 2024 00:00
Orbit: 552 x 2917 km, 32.9° (Epoch: 16 April)

Date Brightness Start Highest point End Pass type
(mag) Time Alt. Az. Time Alt. Az. Time Alt. Az.
17 Apr 11.2 02:34:19 17° SSE 02:38:31 19° SE 02:48:38 10° ESE visible
17 Apr 11.0 04:35:25 14° SSW 04:47:23 32° SSE 05:00:32 10° ESE visible
18 Apr 11.1 02:47:37 20° SSE 02:52:30 22° SSE 03:04:08 10° ESE visible
18 Apr 11.0 04:48:43 13° SW 05:01:38 34° S 05:15:09 10° ESE visible
19 Apr 11.0 03:00:52 22° S 03:06:31 26° SSE 03:19:15 10° ESE visible
19 Apr 10.9 05:01:59 12° SW 05:15:52 35° S 05:29:38 10° ESE visible
20 Apr 11.3 01:12:59 14° SE 01:12:59 14° SE 01:19:27 10° ESE visible
20 Apr 10.9 03:14:05 23° S 03:20:35 29° SSE 03:34:06 10° ESE visible
20 Apr 10.9 05:15:21 10° WSW 05:30:06 36° S 05:44:00 10° ESE visible
21 Apr 11.1 01:26:10 18° SE 01:26:16 18° SE 01:35:45 10° ESE visible
21 Apr 10.8 03:27:16 23° SSW 03:34:42 32° SSE 03:48:47 10° ESE visible
21 Apr 10.9 05:29:36 10° WSW 05:44:19 36° S 05:58:15 10° SE visible
22 Apr 11.0 01:39:19 21° SSE 01:40:07 21° SE 01:51:15 10° ESE visible
22 Apr 10.8 03:40:25 22° SSW 03:48:50 34° SSE 04:03:19 10° ESE visible
23 Apr 10.8 01:52:26 24° SSE 01:54:01 25° SSE 02:06:21 10° ESE visible
23 Apr 10.8 03:53:32 20° SW 04:03:00 35° S 04:17:43 10° ESE visible
24 Apr 11.4 00:04:27 10° ESE 00:04:27 10° ESE 00:04:36 10° ESE visible
24 Apr 10.7 02:05:32 27° SSE 02:07:59 28° SSE 02:21:09 10° ESE visible
24 Apr 10.8 04:06:38 18° SW 04:17:10 36° S 04:32:01 10° ESE visible
25 Apr 11.2 00:17:32 14° ESE 00:17:32 14° ESE 00:21:34 10° ESE visible
25 Apr 10.5 02:18:38 28° S 02:22:00 30° SSE 02:35:47 10° ESE visible
25 Apr 10.8 04:19:43 15° SW 04:31:20 36° S 04:46:10 10° SE visible
26 Apr 11.0 00:30:37 17° SE 00:30:37 17° SE 00:37:14 10° ESE visible
26 Apr 10.4 02:31:42 28° S 02:36:03 32° SSE 02:50:15 10° ESE visible
26 Apr 10.8 04:32:48 12° WSW 04:45:30 35° S 05:00:11 10° SE visible
